Find Starlink 35235

NORAD ID: 65682 Int'l Des: 2025-212 Owner: SPXS Country: US Constellation: starlink operational
LEOCIRCULAR

当前视图

正在加载3D地球...

About Starlink 35235

Starlink 35235 (NORAD 65682) is a starlink constellation satellite (v2 mini) launched Sep 21, 2025 by SPXS of US. It operates in LEO, CIRCULAR orbit with a mass of 575.00 kg.

关于 Starlink 35235

正在加载描述...

即将过境

Passes for default location (London). Set your location on the main map for personalized predictions.

高度历史

Loading altitude history...

两行轨道根数

1 65682U 25212G 26195.08403443 .00101008 00000-0 29531-2 0 9990
2 65682 53.1577 115.8541 0001898 20.0246 340.0830 15.34479663 46581
Epoch: Jul 14, 2026 • Age: 8 hours

当前状态

高度 462.5 km
远地点 / 近地点 N/A
速度 7.64 km/s
星下点 -3.12°S, 32.49°E
发射日期 Sep 21, 2025
运行时间 0.8 years
类型 internet

技术详情

分类 Payload
质量 575.00 kg
干质量 530.00 kg
总质量 575.00 kg
长度 0.30 m
直径 4.10 m
跨度 29.00 m
形状 Box + pan
制造商 SPXS
平台类型 Starlink V2MO
阶段状态 In Orbit
所有者/国家 SPXS/US

Most Searched